Location: Cucq
(50.4773°N, 1.6202°E)
Time: 16:30:57
(UTC+00:00)

Cosmos 2228 - Pass Details

Date: 07 August 2020
Orbit: 588 x 619 km, 82.5° (Epoch: 19 September)

Event Time Altitude Azimuth Distance (km) Brightness Sun altitude
Rises 03:31:32 0° 169° (SSE) 2,862 6.2 -8.7°
Reaches altitude 10° 03:33:49 10° 162° (SSE) 1,968 5.4 -8.4°
Maximum altitude 03:37:54 41° 92° (E) 905 4.4 -7.9°
Drops below altitude 10° 03:42:03 10° 23° (NNE) 1,995 6.7 -7.3°
Sets 03:44:22 0° 16° (NNE) 2,908 7.5 -7.0°
